Time,TemperatureF,DewpointF,PressureIn,WindDirection,WindDirectionDegrees,WindSpeedMPH,WindSpeedGustMPH,Humidity,HourlyPrecipIn,Conditions,Clouds,dailyrainin,SoftwareType,DateUTC
2013-01-16 00:00:00,29.4,18.0,30.28,NNW,337,4.0,6.3,63,0.00,,,0.00,Rainwise IP-100,2013-01-16 05:00:00,
2013-01-16 00:01:00,29.4,18.0,30.28,NNW,337,5.1,6.3,63,0.00,,,0.00,Rainwise IP-100,2013-01-16 05:01:00,
2013-01-16 00:04:00,29.4,18.0,30.29,NNW,337,1.9,6.1,63,0.00,,,0.00,Rainwise IP-100,2013-01-16 05:04:00,
2013-01-16 00:09:00,29.4,18.0,30.28,NNW,337,3.7,6.3,63,0.00,,,0.00,Rainwise IP-100,2013-01-16 05:09:00,
2013-01-16 00:14:00,29.4,18.0,30.28,NNW,337,4.0,7.0,63,0.00,,,0.00,Rainwise IP-100,2013-01-16 05:14:00,
2013-01-16 00:19:00,29.4,18.0,30.28,NNW,337,2.1,7.0,62,0.00,,,0.00,Rainwise IP-100,2013-01-16 05:19:00,
2013-01-16 00:24:00,29.4,18.0,30.28,NNE,22,2.3,5.4,61,0.00,,,0.00,Rainwise IP-100,2013-01-16 05:24:00,
2013-01-16 00:29:00,29.4,18.0,30.28,NW,315,4.0,6.3,60,0.00,,,0.00,Rainwise IP-100,2013-01-16 05:29:00,
2013-01-16 00:34:00,29.5,18.0,30.28,NNW,337,3.0,4.2,60,0.00,,,0.00,Rainwise IP-100,2013-01-16 05:34:00,
2013-01-16 00:39:00,29.5,18.0,30.28,NNW,337,3.3,6.5,60,0.00,,,0.00,Rainwise IP-100,2013-01-16 05:39:00,
2013-01-16 00:44:00,29.5,18.0,30.28,NNW,337,2.1,7.0,60,0.00,,,0.00,Rainwise IP-100,2013-01-16 05:44:00,
2013-01-16 00:49:00,29.4,18.0,30.29,NNW,337,2.3,6.1,60,0.00,,,0.00,Rainwise IP-100,2013-01-16 05:49:00,
2013-01-16 00:54:00,29.3,18.0,30.28,North,360,1.9,4.4,60,0.00,,,0.00,Rainwise IP-100,2013-01-16 05:54:00,
2013-01-16 00:59:00,29.3,18.0,30.29,NNW,337,2.3,3.3,60,0.00,,,0.00,Rainwise IP-100,2013-01-16 05:59:00,
2013-01-16 01:04:00,29.3,18.0,30.29,NNW,337,4.0,4.4,60,0.00,,,0.00,Rainwise IP-100,2013-01-16 06:04:00,
2013-01-16 01:09:00,29.3,16.0,30.29,NNW,337,2.1,4.7,59,0.00,,,0.00,Rainwise IP-100,2013-01-16 06:09:00,
2013-01-16 01:14:00,29.3,16.0,30.29,NNW,337,3.7,4.2,59,0.00,,,0.00,Rainwise IP-100,2013-01-16 06:14:00,
2013-01-16 01:19:00,29.3,18.0,30.28,NNW,337,1.4,4.9,60,0.00,,,0.00,Rainwise IP-100,2013-01-16 06:19:00,
2013-01-16 01:24:00,29.3,18.0,30.28,NNW,337,1.6,3.0,60,0.00,,,0.00,Rainwise IP-100,2013-01-16 06:24:00,
2013-01-16 01:29:00,29.3,16.0,30.29,NNE,22,1.6,4.0,59,0.00,,,0.00,Rainwise IP-100,2013-01-16 06:29:00,
2013-01-16 01:34:00,29.2,16.0,30.29,NNW,337,1.9,4.2,59,0.00,,,0.00,Rainwise IP-100,2013-01-16 06:34:00,
2013-01-16 01:39:00,29.2,16.0,30.29,NNW,337,3.3,3.3,59,0.00,,,0.00,Rainwise IP-100,2013-01-16 06:39:00,
2013-01-16 01:44:00,29.2,18.0,30.30,NNW,337,1.2,4.7,60,0.00,,,0.00,Rainwise IP-100,2013-01-16 06:44:00,
2013-01-16 01:49:00,29.1,18.0,30.30,NNE,22,1.9,3.0,60,0.00,,,0.00,Rainwise IP-100,2013-01-16 06:49:00,
2013-01-16 01:54:00,29.1,18.0,30.30,NNE,22,0.0,2.6,60,0.00,,,0.00,Rainwise IP-100,2013-01-16 06:54:00,
2013-01-16 01:59:00,29.1,18.0,30.30,NNE,22,0.0,0.0,60,0.00,,,0.00,Rainwise IP-100,2013-01-16 06:59:00,
2013-01-16 02:01:00,29.1,18.0,30.30,NNE,22,0.0,0.0,61,0.00,,,0.00,Rainwise IP-100,2013-01-16 07:01:00,
2013-01-16 02:06:00,29.1,18.0,30.29,NNE,22,0.0,0.0,61,0.00,,,0.00,Rainwise IP-100,2013-01-16 07:06:00,
2013-01-16 02:11:00,29.2,18.0,30.29,ENE,67,0.0,0.0,61,0.00,,,0.00,Rainwise IP-100,2013-01-16 07:11:00,
2013-01-16 02:16:00,29.2,18.0,30.28,ENE,67,0.0,0.0,61,0.00,,,0.00,Rainwise IP-100,2013-01-16 07:16:00,
2013-01-16 02:21:00,29.2,18.0,30.29,ENE,67,0.0,0.0,62,0.00,,,0.00,Rainwise IP-100,2013-01-16 07:21:00,
2013-01-16 02:26:00,29.1,18.0,30.28,ENE,67,0.0,0.0,62,0.00,,,0.00,Rainwise IP-100,2013-01-16 07:26:00,
2013-01-16 02:31:00,29.0,18.0,30.28,SSE,157,1.6,0.0,63,0.00,,,0.00,Rainwise IP-100,2013-01-16 07:31:00,
2013-01-16 02:36:00,29.0,18.0,30.28,SSE,157,3.3,3.5,64,0.00,,,0.00,Rainwise IP-100,2013-01-16 07:36:00,
2013-01-16 02:41:00,29.0,18.0,30.28,SSE,157,1.4,4.2,64,0.00,,,0.00,Rainwise IP-100,2013-01-16 07:41:00,
2013-01-16 02:46:00,29.0,18.0,30.27,ESE,112,3.0,3.0,65,0.00,,,0.00,Rainwise IP-100,2013-01-16 07:46:00,
2013-01-16 02:51:00,29.1,18.0,30.27,ESE,112,2.8,4.7,65,0.00,,,0.00,Rainwise IP-100,2013-01-16 07:51:00,
2013-01-16 02:56:00,29.2,18.0,30.26,ESE,112,1.9,4.0,64,0.00,,,0.00,Rainwise IP-100,2013-01-16 07:56:00,
2013-01-16 03:01:00,29.2,18.0,30.27,SSE,157,2.8,3.0,64,0.00,,,0.00,Rainwise IP-100,2013-01-16 08:01:00,
2013-01-16 03:06:00,29.0,18.0,30.26,SSE,157,2.1,4.2,64,0.00,,,0.00,Rainwise IP-100,2013-01-16 08:06:00,
2013-01-16 03:11:00,28.9,18.0,30.26,SSE,157,2.6,3.0,65,0.00,,,0.00,Rainwise IP-100,2013-01-16 08:11:00,
2013-01-16 03:16:00,28.7,21.0,30.26,SSE,157,2.6,3.3,66,0.00,,,0.00,Rainwise IP-100,2013-01-16 08:16:00,
2013-01-16 03:21:00,28.6,21.0,30.25,SSE,157,1.4,3.5,66,0.00,,,0.00,Rainwise IP-100,2013-01-16 08:21:00,
2013-01-16 03:26:00,28.6,21.0,30.25,SSE,157,1.4,2.3,66,0.00,,,0.00,Rainwise IP-100,2013-01-16 08:26:00,
2013-01-16 03:31:00,28.6,21.0,30.25,South,180,2.3,3.5,66,0.00,,,0.00,Rainwise IP-100,2013-01-16 08:31:00,
2013-01-16 03:36:00,28.7,21.0,30.25,SSW,202,3.0,4.0,66,0.00,,,0.00,Rainwise IP-100,2013-01-16 08:36:00,
2013-01-16 03:41:00,28.8,21.0,30.25,South,180,1.9,3.7,66,0.00,,,0.00,Rainwise IP-100,2013-01-16 08:41:00,
2013-01-16 03:46:00,28.8,21.0,30.25,SSE,157,2.3,3.7,66,0.00,,,0.00,Rainwise IP-100,2013-01-16 08:46:00,
2013-01-16 03:51:00,28.9,18.0,30.24,SSE,157,2.6,4.2,65,0.00,,,0.00,Rainwise IP-100,2013-01-16 08:51:00,
2013-01-16 03:57:00,29.1,18.0,30.24,SSE,157,2.3,5.1,65,0.00,,,0.00,Rainwise IP-100,2013-01-16 08:57:00,
2013-01-16 04:02:00,29.2,18.0,30.23,SSE,157,3.0,4.4,65,0.00,,,0.00,Rainwise IP-100,2013-01-16 09:02:00,
2013-01-16 04:07:00,29.3,18.0,30.23,SSE,157,4.4,4.9,65,0.00,,,0.00,Rainwise IP-100,2013-01-16 09:07:00,
2013-01-16 04:12:00,29.6,21.0,30.23,ESE,112,2.3,5.4,64,0.00,,,0.00,Rainwise IP-100,2013-01-16 09:12:00,
2013-01-16 04:17:00,30.0,21.0,30.24,ESE,112,3.0,6.8,63,0.00,,,0.00,Rainwise IP-100,2013-01-16 09:17:00,
2013-01-16 04:22:00,30.2,18.0,30.23,SSE,157,7.7,7.9,61,0.00,,,0.00,Rainwise IP-100,2013-01-16 09:22:00,
2013-01-16 04:27:00,30.4,18.0,30.23,SSE,157,4.2,7.9,59,0.00,,,0.00,Rainwise IP-100,2013-01-16 09:27:00,
2013-01-16 04:32:00,30.4,18.0,30.23,SSE,157,2.3,6.8,57,0.00,,,0.00,Rainwise IP-100,2013-01-16 09:32:00,
2013-01-16 04:37:00,30.5,18.0,30.23,SSE,157,5.1,9.3,58,0.00,,,0.00,Rainwise IP-100,2013-01-16 09:37:00,
2013-01-16 04:42:00,30.6,18.0,30.22,ESE,112,3.5,7.5,58,0.00,,,0.00,Rainwise IP-100,2013-01-16 09:42:00,
2013-01-16 04:47:00,30.7,18.0,30.23,SSE,157,2.3,5.1,59,0.00,,,0.00,Rainwise IP-100,2013-01-16 09:47:00,
2013-01-16 04:52:00,30.7,18.0,30.22,SSE,157,4.9,5.1,60,0.00,,,0.00,Rainwise IP-100,2013-01-16 09:52:00,
2013-01-16 04:57:00,30.7,18.0,30.22,SSE,157,2.8,5.4,61,0.00,,,0.00,Rainwise IP-100,2013-01-16 09:57:00,
2013-01-16 05:02:00,30.7,18.0,30.22,SSE,157,3.3,7.5,61,0.00,,,0.00,Rainwise IP-100,2013-01-16 10:02:00,
2013-01-16 05:07:00,30.8,18.0,30.22,SE,135,6.5,8.4,61,0.00,,,0.00,Rainwise IP-100,2013-01-16 10:07:00,
2013-01-16 05:12:00,31.1,18.0,30.22,SSE,157,4.2,7.5,61,0.00,,,0.00,Rainwise IP-100,2013-01-16 10:12:00,
2013-01-16 05:17:00,31.3,18.0,30.21,SSE,157,3.7,7.9,60,0.00,,,0.00,Rainwise IP-100,2013-01-16 10:17:00,
2013-01-16 05:22:00,31.5,21.0,30.21,ESE,112,5.1,9.6,60,0.00,,,0.00,Rainwise IP-100,2013-01-16 10:22:00,
2013-01-16 05:27:00,31.7,18.0,30.21,ESE,112,8.2,9.6,58,0.00,,,0.00,Rainwise IP-100,2013-01-16 10:27:00,
2013-01-16 05:32:00,31.8,18.0,30.21,SSE,157,5.6,10.3,57,0.00,,,0.00,Rainwise IP-100,2013-01-16 10:32:00,
2013-01-16 05:37:00,31.9,18.0,30.21,SE,135,3.7,9.6,57,0.00,,,0.00,Rainwise IP-100,2013-01-16 10:37:00,
2013-01-16 05:42:00,31.9,18.0,30.21,ESE,112,10.5,10.5,58,0.00,,,0.00,Rainwise IP-100,2013-01-16 10:42:00,
2013-01-16 05:47:00,31.9,18.0,30.21,ESE,112,8.2,10.7,57,0.00,,,0.00,Rainwise IP-100,2013-01-16 10:47:00,
2013-01-16 05:52:00,32.0,18.0,30.21,ESE,112,7.7,10.3,57,0.00,,,0.00,Rainwise IP-100,2013-01-16 10:52:00,
2013-01-16 05:57:00,32.0,18.0,30.20,SSE,157,2.1,10.0,57,0.00,,,0.00,Rainwise IP-100,2013-01-16 10:57:00,
2013-01-16 06:02:00,32.0,18.0,30.21,ESE,112,4.9,8.4,58,0.00,,,0.00,Rainwise IP-100,2013-01-16 11:02:00,
2013-01-16 06:07:00,32.0,21.0,30.21,ESE,112,6.8,7.2,59,0.00,,,0.00,Rainwise IP-100,2013-01-16 11:07:00,
2013-01-16 06:12:00,32.1,18.0,30.21,SSE,157,7.9,9.8,58,0.00,,,0.00,Rainwise IP-100,2013-01-16 11:12:00,
2013-01-16 06:17:00,32.2,18.0,30.20,ESE,112,5.6,8.6,57,0.00,,,0.00,Rainwise IP-100,2013-01-16 11:17:00,
2013-01-16 06:22:00,32.3,18.0,30.21,ESE,112,5.1,8.9,57,0.00,,,0.00,Rainwise IP-100,2013-01-16 11:22:00,
2013-01-16 06:27:00,32.3,18.0,30.21,SE,135,9.6,9.6,58,0.00,,,0.00,Rainwise IP-100,2013-01-16 11:27:00,
2013-01-16 06:32:00,32.4,18.0,30.21,ESE,112,6.3,11.4,57,0.00,,,0.00,Rainwise IP-100,2013-01-16 11:32:00,
2013-01-16 06:37:00,32.5,21.0,30.20,East,90,2.1,8.9,57,0.00,,,0.00,Rainwise IP-100,2013-01-16 11:37:00,
2013-01-16 06:42:00,32.4,18.0,30.19,ESE,112,5.8,10.7,57,0.00,,,0.00,Rainwise IP-100,2013-01-16 11:42:00,
2013-01-16 06:47:00,32.4,18.0,30.19,ESE,112,6.5,9.6,58,0.00,,,0.00,Rainwise IP-100,2013-01-16 11:47:00,
2013-01-16 06:52:00,32.5,21.0,30.18,ENE,67,7.5,11.0,58,0.00,,,0.00,Rainwise IP-100,2013-01-16 11:52:00,
2013-01-16 06:57:00,32.4,18.0,30.19,ESE,112,6.5,8.2,58,0.00,,,0.00,Rainwise IP-100,2013-01-16 11:57:00,
2013-01-16 07:02:00,32.4,21.0,30.20,ESE,112,3.7,9.3,59,0.00,,,0.00,Rainwise IP-100,2013-01-16 12:02:00,
2013-01-16 07:07:00,32.6,21.0,30.19,ESE,112,3.7,8.2,59,0.00,,,0.00,Rainwise IP-100,2013-01-16 12:07:00,
2013-01-16 07:12:00,32.7,21.0,30.19,ESE,112,3.7,8.6,59,0.00,,,0.00,Rainwise IP-100,2013-01-16 12:12:00,
2013-01-16 07:17:00,32.7,21.0,30.20,SE,135,3.3,7.7,59,0.00,,,0.00,Rainwise IP-100,2013-01-16 12:17:00,
2013-01-16 07:22:00,32.6,21.0,30.20,ESE,112,4.0,11.9,59,0.00,,,0.00,Rainwise IP-100,2013-01-16 12:22:00,
2013-01-16 07:27:00,32.3,21.0,30.20,ESE,112,4.0,8.9,60,0.00,,,0.00,Rainwise IP-100,2013-01-16 12:27:00,
2013-01-16 07:32:00,32.0,21.0,30.20,ESE,112,4.9,7.2,61,0.00,,,0.00,Rainwise IP-100,2013-01-16 12:32:00,
2013-01-16 07:37:00,32.0,21.0,30.19,ESE,112,1.6,7.2,62,0.00,,,0.00,Rainwise IP-100,2013-01-16 12:37:00,
2013-01-16 07:42:00,32.0,21.0,30.18,ESE,112,3.7,7.9,62,0.00,,,0.00,Rainwise IP-100,2013-01-16 12:42:00,
2013-01-16 07:47:00,32.0,21.0,30.18,ESE,112,5.6,8.4,63,0.00,,,0.00,Rainwise IP-100,2013-01-16 12:47:00,
2013-01-16 07:52:00,32.1,23.0,30.19,ESE,112,6.1,11.9,64,0.00,,,0.00,Rainwise IP-100,2013-01-16 12:52:00,
2013-01-16 07:57:00,32.0,23.0,30.19,ESE,112,5.6,14.5,66,0.00,,,0.00,Rainwise IP-100,2013-01-16 12:57:00,
2013-01-16 08:02:00,31.8,23.0,30.19,ESE,112,3.0,8.4,68,0.00,,,0.00,Rainwise IP-100,2013-01-16 13:02:00,
2013-01-16 08:07:00,31.7,23.0,30.18,ENE,67,4.2,8.4,69,0.00,,,0.00,Rainwise IP-100,2013-01-16 13:07:00,
2013-01-16 08:12:00,31.5,24.0,30.19,SSE,157,6.5,12.4,71,0.00,,,0.00,Rainwise IP-100,2013-01-16 13:12:00,
2013-01-16 08:17:00,31.2,23.0,30.18,East,90,4.9,8.9,73,0.00,,,0.00,Rainwise IP-100,2013-01-16 13:17:00,
2013-01-16 08:22:00,31.0,24.0,30.18,ENE,67,3.0,8.9,76,0.00,,,0.00,Rainwise IP-100,2013-01-16 13:22:00,
2013-01-16 08:27:00,30.7,24.0,30.18,ESE,112,7.0,10.7,77,0.00,,,0.00,Rainwise IP-100,2013-01-16 13:27:00,
2013-01-16 08:32:00,30.6,24.0,30.19,East,90,3.3,11.4,79,0.00,,,0.00,Rainwise IP-100,2013-01-16 13:32:00,
2013-01-16 08:37:00,30.4,26.0,30.19,NE,45,7.5,7.5,81,0.00,,,0.00,Rainwise IP-100,2013-01-16 13:37:00,
2013-01-16 08:42:00,30.3,26.0,30.18,ESE,112,7.9,12.6,83,0.00,,,0.00,Rainwise IP-100,2013-01-16 13:42:00,
2013-01-16 08:47:00,30.4,26.0,30.18,ESE,112,8.2,9.8,85,0.00,,,0.00,Rainwise IP-100,2013-01-16 13:47:00,
2013-01-16 08:52:00,30.3,28.0,30.18,ESE,112,3.5,9.3,87,0.00,,,0.00,Rainwise IP-100,2013-01-16 13:52:00,
2013-01-16 08:57:00,30.3,28.0,30.18,ENE,67,6.3,8.2,89,0.00,,,0.00,Rainwise IP-100,2013-01-16 13:57:00,
2013-01-16 09:02:00,30.2,28.0,30.18,ENE,67,2.6,7.7,91,0.00,,,0.00,Rainwise IP-100,2013-01-16 14:02:00,
2013-01-16 09:07:00,30.0,28.0,30.18,East,90,4.0,8.6,91,0.00,,,0.00,Rainwise IP-100,2013-01-16 14:07:00,
2013-01-16 09:12:00,30.0,29.0,30.17,ESE,112,6.3,7.0,92,0.00,,,0.00,Rainwise IP-100,2013-01-16 14:12:00,
2013-01-16 09:17:00,30.0,29.0,30.17,East,90,3.5,8.9,93,0.00,,,0.00,Rainwise IP-100,2013-01-16 14:17:00,
2013-01-16 09:22:00,30.0,29.0,30.17,ENE,67,5.8,7.9,94,0.00,,,0.00,Rainwise IP-100,2013-01-16 14:22:00,
2013-01-16 09:27:00,29.9,29.0,30.17,ENE,67,3.5,8.2,94,0.00,,,0.00,Rainwise IP-100,2013-01-16 14:27:00,
2013-01-16 09:32:00,29.8,29.0,30.18,ENE,67,3.7,7.5,95,0.00,,,0.00,Rainwise IP-100,2013-01-16 14:32:00,
2013-01-16 09:37:00,29.7,29.0,30.16,NE,45,5.6,6.8,95,0.00,,,0.00,Rainwise IP-100,2013-01-16 14:37:00,
2013-01-16 09:42:00,29.6,29.0,30.17,East,90,4.9,9.1,96,0.00,,,0.00,Rainwise IP-100,2013-01-16 14:42:00,
2013-01-16 09:47:00,29.5,29.0,30.16,ESE,112,1.6,7.5,96,0.00,,,0.00,Rainwise IP-100,2013-01-16 14:47:00,
2013-01-16 09:52:00,29.6,29.0,30.16,ENE,67,3.5,6.3,96,0.00,,,0.00,Rainwise IP-100,2013-01-16 14:52:00,
2013-01-16 09:57:00,29.7,29.0,30.16,NNE,22,2.8,7.2,97,0.00,,,0.00,Rainwise IP-100,2013-01-16 14:57:00,
2013-01-16 10:02:00,29.9,29.0,30.15,ENE,67,3.7,8.4,97,0.00,,,0.00,Rainwise IP-100,2013-01-16 15:02:00,
2013-01-16 10:07:00,30.0,31.0,30.14,NE,45,4.4,10.7,98,0.00,,,0.00,Rainwise IP-100,2013-01-16 15:07:00,
2013-01-16 10:12:00,30.1,31.0,30.14,NE,45,6.5,9.1,98,0.00,,,0.00,Rainwise IP-100,2013-01-16 15:12:00,
2013-01-16 10:17:00,30.1,31.0,30.14,ENE,67,6.8,10.0,98,0.00,,,0.00,Rainwise IP-100,2013-01-16 15:17:00,
2013-01-16 10:22:00,30.1,31.0,30.14,ENE,67,5.6,10.0,98,0.00,,,0.00,Rainwise IP-100,2013-01-16 15:22:00,
2013-01-16 10:27:00,30.1,31.0,30.13,ESE,112,3.5,9.8,98,0.00,,,0.00,Rainwise IP-100,2013-01-16 15:27:00,
2013-01-16 10:32:00,30.2,31.0,30.12,ENE,67,6.5,7.2,98,0.00,,,0.00,Rainwise IP-100,2013-01-16 15:32:00,
2013-01-16 10:37:00,30.4,31.0,30.11,ESE,112,2.1,9.3,99,0.00,,,0.00,Rainwise IP-100,2013-01-16 15:37:00,
2013-01-16 10:42:00,30.5,31.0,30.11,ESE,112,5.8,7.0,99,0.00,,,0.00,Rainwise IP-100,2013-01-16 15:42:00,
2013-01-16 10:47:00,30.7,31.0,30.10,ESE,112,6.8,8.9,99,0.00,,,0.00,Rainwise IP-100,2013-01-16 15:47:00,
2013-01-16 10:52:00,30.8,31.0,30.08,East,90,8.4,10.5,99,0.00,,,0.00,Rainwise IP-100,2013-01-16 15:52:00,
2013-01-16 10:57:00,30.9,31.0,30.09,ESE,112,2.6,11.9,99,0.00,,,0.00,Rainwise IP-100,2013-01-16 15:57:00,
2013-01-16 11:02:00,31.0,31.0,30.09,East,90,4.0,10.3,99,0.00,,,0.00,Rainwise IP-100,2013-01-16 16:02:00,
2013-01-16 11:07:00,31.1,31.0,30.09,SSE,157,4.2,10.3,99,0.00,,,0.00,Rainwise IP-100,2013-01-16 16:07:00,
2013-01-16 11:12:00,31.2,31.0,30.08,East,90,5.6,8.9,99,0.00,,,0.00,Rainwise IP-100,2013-01-16 16:12:00,
2013-01-16 11:17:00,31.4,31.0,30.08,ESE,112,5.6,7.2,99,0.00,,,0.00,Rainwise IP-100,2013-01-16 16:17:00,
2013-01-16 11:22:00,31.4,31.0,30.08,East,90,3.0,8.4,99,0.00,,,0.00,Rainwise IP-100,2013-01-16 16:22:00,
2013-01-16 11:27:00,31.5,32.0,30.06,ESE,112,4.7,11.0,99,0.00,,,0.00,Rainwise IP-100,2013-01-16 16:27:00,
2013-01-16 11:32:00,31.5,32.0,30.06,SE,135,6.3,10.0,99,0.00,,,0.00,Rainwise IP-100,2013-01-16 16:32:00,
2013-01-16 11:37:00,31.6,32.0,30.05,ESE,112,7.2,11.9,99,0.00,,,0.00,Rainwise IP-100,2013-01-16 16:37:00,
2013-01-16 11:42:00,31.7,32.0,30.06,ESE,112,7.7,11.2,100,0.00,,,0.00,Rainwise IP-100,2013-01-16 16:42:00,
2013-01-16 11:47:00,31.7,32.0,30.05,ESE,112,7.2,14.5,100,0.00,,,0.00,Rainwise IP-100,2013-01-16 16:47:00,
2013-01-16 11:52:00,31.7,32.0,30.05,ESE,112,6.5,11.4,100,0.00,,,0.00,Rainwise IP-100,2013-01-16 16:52:00,
2013-01-16 11:57:00,31.8,32.0,30.04,ESE,112,11.0,13.5,100,0.00,,,0.00,Rainwise IP-100,2013-01-16 16:57:00,
2013-01-16 12:02:00,31.9,32.0,30.03,ESE,112,6.3,14.0,100,0.00,,,0.00,Rainwise IP-100,2013-01-16 17:02:00,
2013-01-16 12:07:00,32.0,32.0,30.03,ESE,112,6.3,12.4,100,0.00,,,0.00,Rainwise IP-100,2013-01-16 17:07:00,
2013-01-16 12:12:00,32.0,32.0,30.03,East,90,2.8,12.8,100,0.00,,,0.00,Rainwise IP-100,2013-01-16 17:12:00,
2013-01-16 12:17:00,32.1,32.0,30.03,SE,135,8.4,11.0,100,0.00,,,0.00,Rainwise IP-100,2013-01-16 17:17:00,
2013-01-16 12:22:00,32.1,32.0,30.02,East,90,4.0,11.4,100,0.00,,,0.00,Rainwise IP-100,2013-01-16 17:22:00,
2013-01-16 12:27:00,32.2,32.0,30.02,ESE,112,2.6,8.9,100,0.00,,,0.00,Rainwise IP-100,2013-01-16 17:27:00,
2013-01-16 12:32:00,32.5,33.0,30.01,SE,135,5.4,12.8,100,0.00,,,0.00,Rainwise IP-100,2013-01-16 17:32:00,
2013-01-16 12:37:00,32.8,33.0,30.01,ESE,112,3.5,13.1,100,0.00,,,0.00,Rainwise IP-100,2013-01-16 17:37:00,
2013-01-16 12:42:00,32.9,33.0,30.01,East,90,8.4,12.6,100,0.00,,,0.00,Rainwise IP-100,2013-01-16 17:42:00,
2013-01-16 12:47:00,32.9,33.0,30.01,ESE,112,11.4,14.0,100,0.00,,,0.00,Rainwise IP-100,2013-01-16 17:47:00,
2013-01-16 12:52:00,33.0,33.0,30.00,ESE,112,8.9,15.2,100,0.00,,,0.00,Rainwise IP-100,2013-01-16 17:52:00,
2013-01-16 12:57:00,33.1,33.0,30.00,ESE,112,9.3,15.6,100,0.00,,,0.00,Rainwise IP-100,2013-01-16 17:57:00,
2013-01-16 13:02:00,33.2,33.0,30.00,ESE,112,10.7,17.0,100,0.00,,,0.00,Rainwise IP-100,2013-01-16 18:02:00,
2013-01-16 13:07:00,33.3,33.0,30.00,ENE,67,6.5,17.0,100,0.00,,,0.00,Rainwise IP-100,2013-01-16 18:07:00,
2013-01-16 13:12:00,33.4,33.0,29.99,ESE,112,13.8,17.5,100,0.00,,,0.00,Rainwise IP-100,2013-01-16 18:12:00,
2013-01-16 13:17:00,33.4,33.0,29.98,East,90,10.0,16.3,100,0.00,,,0.00,Rainwise IP-100,2013-01-16 18:17:00,
2013-01-16 13:22:00,33.3,33.0,29.99,ENE,67,4.2,14.7,100,0.00,,,0.00,Rainwise IP-100,2013-01-16 18:22:00,
2013-01-16 13:27:00,33.4,33.0,29.99,East,90,10.0,13.5,100,0.00,,,0.00,Rainwise IP-100,2013-01-16 18:27:00,
2013-01-16 13:32:00,33.6,35.0,29.98,ESE,112,7.9,14.2,100,0.00,,,0.00,Rainwise IP-100,2013-01-16 18:32:00,
2013-01-16 13:37:00,33.7,35.0,29.99,ESE,112,9.8,12.6,100,0.00,,,0.00,Rainwise IP-100,2013-01-16 18:37:00,
2013-01-16 13:42:00,33.6,35.0,29.98,ESE,112,3.5,15.2,100,0.06,,,0.01,Rainwise IP-100,2013-01-16 18:42:00,
2013-01-16 13:47:00,33.4,33.0,29.98,NNE,22,5.1,9.8,100,0.12,,,0.02,Rainwise IP-100,2013-01-16 18:47:00,
2013-01-16 13:52:00,33.2,33.0,29.97,SSE,157,2.6,11.2,100,0.06,,,0.02,Rainwise IP-100,2013-01-16 18:52:00,
2013-01-16 13:57:00,32.8,33.0,29.98,ESE,112,5.1,10.7,100,0.00,,,0.02,Rainwise IP-100,2013-01-16 18:57:00,
2013-01-16 14:02:00,32.6,33.0,29.96,ESE,112,9.1,9.1,100,0.00,,,0.02,Rainwise IP-100,2013-01-16 19:02:00,
2013-01-16 14:07:00,32.4,32.0,29.96,SE,135,6.1,11.2,100,0.00,,,0.02,Rainwise IP-100,2013-01-16 19:07:00,
2013-01-16 14:12:00,32.6,33.0,29.96,ESE,112,7.0,11.9,100,0.06,,,0.03,Rainwise IP-100,2013-01-16 19:12:00,
2013-01-16 14:17:00,32.7,33.0,29.95,SE,135,6.8,11.9,100,0.06,,,0.03,Rainwise IP-100,2013-01-16 19:17:00,
2013-01-16 14:22:00,32.8,33.0,29.93,ESE,112,4.7,13.3,100,0.06,,,0.04,Rainwise IP-100,2013-01-16 19:22:00,
2013-01-16 14:27:00,33.1,33.0,29.94,SSE,157,7.9,13.3,100,0.12,,,0.05,Rainwise IP-100,2013-01-16 19:27:00,
2013-01-16 14:32:00,33.6,35.0,29.95,SE,135,7.9,11.4,100,0.12,,,0.06,Rainwise IP-100,2013-01-16 19:32:00,
2013-01-16 14:37:00,33.7,35.0,29.94,SSE,157,7.5,13.3,100,0.12,,,0.07,Rainwise IP-100,2013-01-16 19:37:00,
2013-01-16 14:42:00,33.5,35.0,29.93,SSE,157,8.4,12.6,100,0.12,,,0.08,Rainwise IP-100,2013-01-16 19:42:00,
2013-01-16 14:47:00,33.4,33.0,29.92,SSE,157,4.4,12.4,100,0.12,,,0.09,Rainwise IP-100,2013-01-16 19:47:00,
2013-01-16 14:52:00,33.6,35.0,29.92,SSE,157,7.2,14.7,100,0.06,,,0.09,Rainwise IP-100,2013-01-16 19:52:00,
2013-01-16 14:57:00,33.9,35.0,29.92,SE,135,6.3,12.6,100,0.06,,,0.10,Rainwise IP-100,2013-01-16 19:57:00,
2013-01-16 15:02:00,34.1,35.0,29.91,SE,135,10.3,16.3,100,0.06,,,0.11,Rainwise IP-100,2013-01-16 20:02:00,
2013-01-16 15:07:00,34.3,35.0,29.91,SE,135,9.1,13.8,100,0.12,,,0.12,Rainwise IP-100,2013-01-16 20:07:00,
2013-01-16 15:12:00,34.5,35.0,29.90,SSW,202,7.0,14.2,100,0.12,,,0.13,Rainwise IP-100,2013-01-16 20:12:00,
2013-01-16 15:17:00,34.6,35.0,29.90,SSE,157,7.2,18.0,100,0.06,,,0.13,Rainwise IP-100,2013-01-16 20:17:00,
2013-01-16 15:22:00,34.6,35.0,29.90,SSE,157,7.2,16.3,100,0.12,,,0.14,Rainwise IP-100,2013-01-16 20:22:00,
2013-01-16 15:27:00,34.6,35.0,29.91,SSE,157,5.4,11.7,100,0.12,,,0.15,Rainwise IP-100,2013-01-16 20:27:00,
2013-01-16 15:32:00,34.7,35.0,29.91,SSE,157,8.2,19.4,100,0.12,,,0.16,Rainwise IP-100,2013-01-16 20:32:00,
2013-01-16 15:37:00,34.8,35.0,29.91,SSE,157,8.4,14.9,100,0.12,,,0.17,Rainwise IP-100,2013-01-16 20:37:00,
2013-01-16 15:42:00,34.9,35.0,29.90,South,180,11.4,15.6,100,0.12,,,0.18,Rainwise IP-100,2013-01-16 20:42:00,
2013-01-16 15:47:00,35.0,35.0,29.90,SSE,157,6.5,20.3,100,0.12,,,0.19,Rainwise IP-100,2013-01-16 20:47:00,
2013-01-16 15:52:00,35.1,35.0,29.90,SSE,157,9.3,15.9,100,0.06,,,0.19,Rainwise IP-100,2013-01-16 20:52:00,
2013-01-16 15:57:00,35.1,35.0,29.89,SSE,157,14.9,18.2,100,0.06,,,0.20,Rainwise IP-100,2013-01-16 20:57:00,
2013-01-16 16:02:00,35.2,35.0,29.90,SSE,157,7.5,16.6,100,0.12,,,0.21,Rainwise IP-100,2013-01-16 21:02:00,
2013-01-16 16:07:00,35.2,35.0,29.89,SSE,157,7.7,11.0,100,0.06,,,0.21,Rainwise IP-100,2013-01-16 21:07:00,
2013-01-16 16:12:00,35.3,35.0,29.90,SSE,157,13.8,15.6,100,0.00,,,0.21,Rainwise IP-100,2013-01-16 21:12:00,
2013-01-16 16:17:00,35.4,35.0,29.89,SSE,157,8.4,16.1,100,0.06,,,0.22,Rainwise IP-100,2013-01-16 21:17:00,
2013-01-16 16:22:00,35.4,35.0,29.89,South,180,11.0,23.1,99,0.06,,,0.22,Rainwise IP-100,2013-01-16 21:22:00,
2013-01-16 16:27:00,35.5,36.0,29.88,SSW,202,9.1,16.3,99,0.06,,,0.23,Rainwise IP-100,2013-01-16 21:27:00,
2013-01-16 16:32:00,35.5,36.0,29.87,SSE,157,13.3,20.1,99,0.06,,,0.23,Rainwise IP-100,2013-01-16 21:32:00,
2013-01-16 16:37:00,35.4,35.0,29.88,SSE,157,9.6,17.5,99,0.06,,,0.24,Rainwise IP-100,2013-01-16 21:37:00,
2013-01-16 16:42:00,35.4,35.0,29.88,SSE,157,5.6,15.2,99,0.06,,,0.24,Rainwise IP-100,2013-01-16 21:42:00,
2013-01-16 16:47:00,35.4,35.0,29.89,ESE,112,7.2,16.8,99,0.00,,,0.24,Rainwise IP-100,2013-01-16 21:47:00,
2013-01-16 16:52:00,35.3,35.0,29.88,South,180,7.2,13.5,99,0.06,,,0.25,Rainwise IP-100,2013-01-16 21:52:00,
2013-01-16 16:57:00,35.3,35.0,29.89,SSE,157,5.4,13.1,99,0.06,,,0.25,Rainwise IP-100,2013-01-16 21:57:00,
2013-01-16 17:02:00,35.3,35.0,29.88,SE,135,4.9,16.1,99,0.00,,,0.25,Rainwise IP-100,2013-01-16 22:02:00,
2013-01-16 17:07:00,35.3,35.0,29.88,ESE,112,10.3,12.6,99,0.06,,,0.26,Rainwise IP-100,2013-01-16 22:07:00,
2013-01-16 17:12:00,35.4,35.0,29.89,SSE,157,7.7,14.2,99,0.06,,,0.26,Rainwise IP-100,2013-01-16 22:12:00,
2013-01-16 17:17:00,35.4,35.0,29.89,SSE,157,3.5,14.7,99,0.06,,,0.27,Rainwise IP-100,2013-01-16 22:17:00,
2013-01-16 17:22:00,35.4,35.0,29.89,SSE,157,9.6,14.7,99,0.06,,,0.27,Rainwise IP-100,2013-01-16 22:22:00,
2013-01-16 17:27:00,35.4,35.0,29.88,SSE,157,10.5,14.5,99,0.06,,,0.28,Rainwise IP-100,2013-01-16 22:27:00,
2013-01-16 17:32:00,35.2,35.0,29.88,SE,135,11.4,13.3,99,0.06,,,0.28,Rainwise IP-100,2013-01-16 22:32:00,
2013-01-16 17:37:00,35.0,35.0,29.89,SSE,157,3.5,18.0,99,0.06,,,0.29,Rainwise IP-100,2013-01-16 22:37:00,
2013-01-16 17:42:00,34.8,35.0,29.88,SSE,157,6.3,20.1,99,0.12,,,0.30,Rainwise IP-100,2013-01-16 22:42:00,
2013-01-16 17:47:00,34.8,35.0,29.89,SSE,157,11.7,18.2,99,0.06,,,0.30,Rainwise IP-100,2013-01-16 22:47:00,
2013-01-16 17:52:00,34.9,35.0,29.88,SSE,157,6.8,15.4,100,0.00,,,0.30,Rainwise IP-100,2013-01-16 22:52:00,
2013-01-16 17:57:00,34.9,35.0,29.89,SSE,157,5.4,14.5,100,0.06,,,0.31,Rainwise IP-100,2013-01-16 22:57:00,
2013-01-16 18:02:00,34.8,35.0,29.90,South,180,5.6,14.5,100,0.06,,,0.31,Rainwise IP-100,2013-01-16 23:02:00,
2013-01-16 18:07:00,34.8,35.0,29.88,SSE,157,9.8,19.4,100,0.06,,,0.32,Rainwise IP-100,2013-01-16 23:07:00,
2013-01-16 18:12:00,34.7,35.0,29.88,SE,135,11.4,18.9,100,0.12,,,0.33,Rainwise IP-100,2013-01-16 23:12:00,
2013-01-16 18:17:00,34.7,35.0,29.88,SSE,157,8.6,18.7,100,0.06,,,0.33,Rainwise IP-100,2013-01-16 23:17:00,
2013-01-16 18:22:00,34.8,35.0,29.88,SE,135,4.7,18.9,100,0.06,,,0.34,Rainwise IP-100,2013-01-16 23:22:00,
2013-01-16 18:27:00,34.9,35.0,29.88,SE,135,7.5,19.6,100,0.06,,,0.34,Rainwise IP-100,2013-01-16 23:27:00,
2013-01-16 18:32:00,34.9,35.0,29.87,ESE,112,6.8,14.0,100,0.06,,,0.35,Rainwise IP-100,2013-01-16 23:32:00,
2013-01-16 18:37:00,34.9,35.0,29.87,SSE,157,9.8,13.1,100,0.06,,,0.35,Rainwise IP-100,2013-01-16 23:37:00,
2013-01-16 18:42:00,34.7,35.0,29.87,SSE,157,9.3,19.1,100,0.06,,,0.36,Rainwise IP-100,2013-01-16 23:42:00,
2013-01-16 18:47:00,34.7,35.0,29.86,SSE,157,7.9,21.9,100,0.12,,,0.37,Rainwise IP-100,2013-01-16 23:47:00,
2013-01-16 18:52:00,34.8,35.0,29.87,ESE,112,7.7,18.2,100,0.12,,,0.38,Rainwise IP-100,2013-01-16 23:52:00,
2013-01-16 18:57:00,35.0,35.0,29.88,SSE,157,7.2,14.2,100,0.06,,,0.38,Rainwise IP-100,2013-01-16 23:57:00,
2013-01-16 19:02:00,35.1,35.0,29.86,SSE,157,13.3,15.6,100,0.00,,,0.38,Rainwise IP-100,2013-01-17 00:02:00,
2013-01-16 19:07:00,35.3,35.0,29.85,SSE,157,9.3,19.8,100,0.00,,,0.38,Rainwise IP-100,2013-01-17 00:07:00,
2013-01-16 19:12:00,35.4,35.0,29.85,SSE,157,12.4,19.4,100,0.00,,,0.38,Rainwise IP-100,2013-01-17 00:12:00,
2013-01-16 19:17:00,35.4,35.0,29.84,SSE,157,10.5,19.4,99,0.00,,,0.38,Rainwise IP-100,2013-01-17 00:17:00,
2013-01-16 19:22:00,35.4,35.0,29.84,SSE,157,12.1,24.7,99,0.00,,,0.38,Rainwise IP-100,2013-01-17 00:22:00,
2013-01-16 19:27:00,35.5,36.0,29.84,SSE,157,9.6,23.1,98,0.06,,,0.39,Rainwise IP-100,2013-01-17 00:27:00,
2013-01-16 19:32:00,35.4,35.0,29.83,SE,135,13.5,22.6,98,0.06,,,0.39,Rainwise IP-100,2013-01-17 00:32:00,
2013-01-16 19:37:00,35.3,35.0,29.82,SSE,157,14.0,20.1,99,0.00,,,0.39,Rainwise IP-100,2013-01-17 00:37:00,
2013-01-16 19:42:00,35.3,35.0,29.81,SSE,157,14.9,19.8,98,0.00,,,0.39,Rainwise IP-100,2013-01-17 00:42:00,
2013-01-16 19:47:00,35.4,35.0,29.83,SE,135,12.1,22.6,98,0.00,,,0.39,Rainwise IP-100,2013-01-17 00:47:00,
2013-01-16 19:52:00,35.5,36.0,29.83,South,180,6.3,15.4,98,0.00,,,0.39,Rainwise IP-100,2013-01-17 00:52:00,
2013-01-16 19:57:00,35.6,36.0,29.83,SSE,157,10.7,17.3,98,0.00,,,0.39,Rainwise IP-100,2013-01-17 00:57:00,
2013-01-16 20:02:00,35.6,35.0,29.83,ESE,112,15.4,18.7,97,0.00,,,0.39,Rainwise IP-100,2013-01-17 01:02:00,
2013-01-16 20:07:00,35.6,35.0,29.83,ESE,112,9.8,19.8,96,0.00,,,0.39,Rainwise IP-100,2013-01-17 01:07:00,
2013-01-16 20:12:00,35.6,35.0,29.83,SSE,157,14.2,15.2,96,0.00,,,0.39,Rainwise IP-100,2013-01-17 01:12:00,
2013-01-16 20:17:00,35.6,35.0,29.83,SSE,157,6.5,16.3,96,0.00,,,0.39,Rainwise IP-100,2013-01-17 01:17:00,
2013-01-16 20:22:00,35.6,35.0,29.84,WSW,247,2.3,13.3,96,0.00,,,0.39,Rainwise IP-100,2013-01-17 01:22:00,
2013-01-16 20:27:00,35.6,35.0,29.83,SSE,157,2.1,13.1,96,0.00,,,0.39,Rainwise IP-100,2013-01-17 01:27:00,
2013-01-16 20:32:00,35.7,35.0,29.83,SSE,157,7.5,16.1,97,0.00,,,0.39,Rainwise IP-100,2013-01-17 01:32:00,
2013-01-16 20:37:00,35.8,35.0,29.83,SSE,157,6.3,15.6,96,0.00,,,0.39,Rainwise IP-100,2013-01-17 01:37:00,
2013-01-16 20:42:00,35.8,35.0,29.83,SSE,157,12.4,13.8,96,0.00,,,0.39,Rainwise IP-100,2013-01-17 01:42:00,
2013-01-16 20:47:00,35.9,35.0,29.82,SSE,157,6.5,14.0,96,0.00,,,0.39,Rainwise IP-100,2013-01-17 01:47:00,
2013-01-16 20:52:00,36.0,35.0,29.82,SSE,157,7.7,14.2,96,0.00,,,0.39,Rainwise IP-100,2013-01-17 01:52:00,
2013-01-16 20:57:00,36.1,35.0,29.82,ESE,112,11.4,14.5,96,0.00,,,0.39,Rainwise IP-100,2013-01-17 01:57:00,
2013-01-16 21:02:00,36.1,35.0,29.82,SSE,157,4.2,12.8,96,0.00,,,0.39,Rainwise IP-100,2013-01-17 02:02:00,
2013-01-16 21:07:00,36.1,35.0,29.82,South,180,6.3,12.8,96,0.00,,,0.39,Rainwise IP-100,2013-01-17 02:07:00,
2013-01-16 21:12:00,36.1,35.0,29.81,SSE,157,7.2,14.5,96,0.00,,,0.39,Rainwise IP-100,2013-01-17 02:12:00,
2013-01-16 21:17:00,36.2,35.0,29.81,SSE,157,6.8,17.5,96,0.00,,,0.39,Rainwise IP-100,2013-01-17 02:17:00,
2013-01-16 21:22:00,36.3,35.0,29.81,SSE,157,9.6,18.2,95,0.00,,,0.39,Rainwise IP-100,2013-01-17 02:22:00,
2013-01-16 21:27:00,36.3,35.0,29.81,SSE,157,11.4,14.0,95,0.00,,,0.39,Rainwise IP-100,2013-01-17 02:27:00,
2013-01-16 21:32:00,36.4,35.0,29.81,SE,135,10.3,15.6,95,0.00,,,0.39,Rainwise IP-100,2013-01-17 02:32:00,
2013-01-16 21:37:00,36.4,35.0,29.81,SSE,157,4.7,14.2,95,0.00,,,0.39,Rainwise IP-100,2013-01-17 02:37:00,
2013-01-16 21:42:00,36.4,35.0,29.80,SSE,157,10.7,15.4,95,0.00,,,0.39,Rainwise IP-100,2013-01-17 02:42:00,
2013-01-16 21:47:00,36.4,35.0,29.80,ESE,112,9.1,18.2,95,0.00,,,0.39,Rainwise IP-100,2013-01-17 02:47:00,
2013-01-16 21:52:00,36.5,36.0,29.80,SSE,157,5.1,17.3,95,0.00,,,0.39,Rainwise IP-100,2013-01-17 02:52:00,
2013-01-16 21:57:00,36.4,35.0,29.80,SSE,157,8.2,15.6,95,0.00,,,0.39,Rainwise IP-100,2013-01-17 02:57:00,
2013-01-16 22:02:00,36.4,35.0,29.80,SSE,157,7.2,16.1,95,0.00,,,0.39,Rainwise IP-100,2013-01-17 03:02:00,
2013-01-16 22:07:00,36.5,36.0,29.80,SSE,157,7.0,15.6,95,0.00,,,0.39,Rainwise IP-100,2013-01-17 03:07:00,
2013-01-16 22:12:00,36.5,36.0,29.80,ESE,112,8.4,15.6,96,0.00,,,0.39,Rainwise IP-100,2013-01-17 03:12:00,
2013-01-16 22:17:00,36.4,35.0,29.80,SSE,157,5.1,14.0,96,0.00,,,0.39,Rainwise IP-100,2013-01-17 03:17:00,
2013-01-16 22:22:00,36.4,35.0,29.80,ESE,112,4.9,13.1,97,0.00,,,0.39,Rainwise IP-100,2013-01-17 03:22:00,
2013-01-16 22:27:00,36.4,35.0,29.80,SE,135,1.6,13.8,97,0.00,,,0.39,Rainwise IP-100,2013-01-17 03:27:00,
2013-01-16 22:32:00,36.4,35.0,29.80,SE,135,2.3,10.5,97,0.00,,,0.39,Rainwise IP-100,2013-01-17 03:32:00,
2013-01-16 22:37:00,36.4,35.0,29.80,SSE,157,6.3,12.6,97,0.00,,,0.39,Rainwise IP-100,2013-01-17 03:37:00,
2013-01-16 22:42:00,36.5,36.0,29.80,ESE,112,7.7,11.0,97,0.00,,,0.39,Rainwise IP-100,2013-01-17 03:42:00,
2013-01-16 22:47:00,36.5,36.0,29.80,SSE,157,5.6,10.0,96,0.06,,,0.40,Rainwise IP-100,2013-01-17 03:47:00,
2013-01-16 22:52:00,36.5,36.0,29.80,SSW,202,2.3,10.7,96,0.06,,,0.40,Rainwise IP-100,2013-01-17 03:52:00,
2013-01-16 22:57:00,36.5,36.0,29.80,SE,135,8.6,11.9,96,0.00,,,0.40,Rainwise IP-100,2013-01-17 03:57:00,
2013-01-16 23:02:00,36.4,35.0,29.79,SSE,157,9.8,12.4,97,0.00,,,0.40,Rainwise IP-100,2013-01-17 04:02:00,
2013-01-16 23:07:00,36.5,36.0,29.78,SSE,157,8.4,16.6,97,0.00,,,0.40,Rainwise IP-100,2013-01-17 04:07:00,
2013-01-16 23:12:00,36.5,36.0,29.78,SSE,157,5.8,14.5,97,0.00,,,0.40,Rainwise IP-100,2013-01-17 04:12:00,
2013-01-16 23:17:00,36.5,36.0,29.79,SSE,157,8.6,19.6,97,0.00,,,0.40,Rainwise IP-100,2013-01-17 04:17:00,
2013-01-16 23:22:00,36.5,36.0,29.78,South,180,16.8,16.8,97,0.00,,,0.40,Rainwise IP-100,2013-01-17 04:22:00,
2013-01-16 23:27:00,36.5,36.0,29.78,ESE,112,9.6,16.8,97,0.00,,,0.40,Rainwise IP-100,2013-01-17 04:27:00,
2013-01-16 23:32:00,36.5,36.0,29.77,SSE,157,13.1,17.0,97,0.00,,,0.40,Rainwise IP-100,2013-01-17 04:32:00,
2013-01-16 23:37:00,36.6,36.0,29.77,SE,135,8.4,13.8,96,0.00,,,0.40,Rainwise IP-100,2013-01-17 04:37:00,
2013-01-16 23:42:00,36.6,36.0,29.77,SSE,157,15.4,15.4,96,0.00,,,0.40,Rainwise IP-100,2013-01-17 04:42:00,
2013-01-16 23:47:00,36.5,36.0,29.77,SSE,157,11.4,15.9,97,0.00,,,0.40,Rainwise IP-100,2013-01-17 04:47:00,
2013-01-16 23:52:00,36.5,36.0,29.77,SSE,157,5.6,12.8,97,0.00,,,0.40,Rainwise IP-100,2013-01-17 04:52:00,
2013-01-16 23:57:00,36.6,36.0,29.78,South,180,5.4,9.8,97,0.00,,,0.40,Rainwise IP-100,2013-01-17 04:57:00,